Location: Chippewa Lake
(41.0698°N, 81.9010°W)
Time: 01:57:43
(UTC+00:00)

Cosmos 1455 Rocket - Pass Details

Date: 09 May 2021
Orbit: 605 x 629 km, 82.5° (Epoch: 24 June)

Event Time Altitude Azimuth Distance (km) Brightness Sun altitude
Rises 08:21:48 0° 344° (NNW) 2,871 6.9 -18.5°
Reaches altitude 10° 08:24:06 10° 338° (NNW) 1,963 5.9 -18.1°
Maximum altitude 08:28:10 41° 268° (W) 883 3.5 -17.6°
Enters shadow 08:29:08 36° 235° (SW) 975 3.5 -17.5°
